Location: Most
(50.5133°N, 13.6207°E)
Time: 23:35:38
(UTC+01:00)

ISS - Pass Details

Date: 13 January 2018
Orbit: 402 x 407 km, 51.6° (Epoch: 22 January)

Event Time Altitude Azimuth Distance (km) Brightness Sun altitude
Exits shadow 05:33:47 31° 155° (SSE) 741 -2.3 -22.7°
Drops below altitude 10° 05:35:48 10° 132° (SE) 1,463 -0.3 -22.4°
Sets 05:37:55 0° 126° (SE) 2,321 1.0 -22.1°
